Date Time,Air Temp,Sky Temp,Clarity,Light Level,Rain Sensor,Readings
2011-08-25 00:00:20,25.6,2.2,23.4,0.0,2.3,111
2011-08-25 00:05:20,25.7,2.4,23.3,0.0,2.3,111
2011-08-25 00:10:20,25.7,2.5,23.2,0.0,2.3,112
2011-08-25 00:15:20,25.8,2.9,22.9,0.0,2.3,111
2011-08-25 00:20:21,25.9,2.8,23.0,0.0,2.3,112
2011-08-25 00:25:20,25.9,2.4,23.5,0.0,2.3,111
2011-08-25 00:30:21,25.9,1.9,24.0,0.0,2.3,111
2011-08-25 00:35:21,25.9,1.2,24.6,0.0,2.3,111
2011-08-25 00:40:21,25.8,-0.3,26.1,0.0,2.3,112
2011-08-25 00:45:21,25.7,0.3,25.4,0.0,2.3,111
2011-08-25 00:50:21,25.8,0.6,25.2,0.0,2.3,111
2011-08-25 00:55:21,25.8,3.4,22.5,0.0,2.3,111
2011-08-25 01:00:21,26.0,3.9,22.0,0.0,2.3,112
2011-08-25 01:05:21,26.1,3.0,23.1,0.0,2.2,111
2011-08-25 01:10:21,26.0,5.0,21.0,0.0,2.2,111
2011-08-25 01:15:21,23.3,9.3,14.0,0.0,2.3,112
2011-08-25 01:20:21,22.0,9.3,12.7,0.0,2.3,112
2011-08-25 01:25:21,21.6,10.0,11.6,0.0,2.3,111
2011-08-25 01:30:21,21.5,9.4,12.0,0.0,2.2,112
2011-08-25 01:35:21,21.4,9.0,12.4,0.0,2.2,111
2011-08-25 01:40:21,21.4,8.7,12.6,0.0,2.2,111
2011-08-25 01:45:21,21.3,8.5,12.9,0.0,2.2,112
2011-08-25 01:50:21,21.3,6.8,14.5,0.0,2.3,111
2011-08-25 01:55:21,21.3,6.4,14.8,0.0,2.3,112
2011-08-25 02:00:21,21.2,7.2,14.0,0.0,2.3,111
2011-08-25 02:05:21,21.2,9.7,11.5,0.0,2.3,112
2011-08-25 02:10:21,21.2,8.8,12.4,0.1,2.3,111
2011-08-25 02:15:21,21.3,8.7,12.6,0.1,2.2,111
2011-08-25 02:20:21,21.4,9.0,12.4,0.0,2.3,112
2011-08-25 02:25:21,21.5,10.1,11.4,0.0,2.3,111
2011-08-25 02:30:21,21.6,10.5,11.1,0.0,2.3,111
2011-08-25 02:35:21,21.8,10.1,11.7,0.0,2.3,112
2011-08-25 02:40:21,21.9,10.0,11.9,0.0,2.3,112
2011-08-25 02:45:21,22.0,10.6,11.4,0.0,2.3,111
2011-08-25 02:50:21,22.1,11.3,10.7,0.0,2.3,112
2011-08-25 02:55:21,22.2,11.2,11.0,0.1,2.3,111
2011-08-25 03:00:21,22.2,9.3,12.9,0.1,2.3,112
2011-08-25 03:05:21,22.2,9.4,12.8,0.1,2.3,111
2011-08-25 03:10:21,22.2,10.5,11.7,0.0,2.3,111
2011-08-25 03:15:21,22.2,10.3,11.9,0.1,2.3,112
2011-08-25 03:20:21,22.2,9.3,12.9,0.0,2.3,111
2011-08-25 03:25:21,22.2,11.0,11.2,0.0,2.3,112
2011-08-25 03:30:21,22.1,11.7,10.4,0.0,5.4,111
2011-08-25 03:35:21,22.0,12.0,10.1,0.0,2.4,112
2011-08-25 03:40:21,22.0,11.1,10.9,0.0,2.6,111
2011-08-25 03:45:21,22.0,10.6,11.4,0.0,2.3,112
2011-08-25 03:50:21,22.0,10.3,11.7,0.0,2.3,111
2011-08-25 03:55:21,22.0,10.6,11.4,0.1,2.4,112
2011-08-25 04:00:21,22.0,11.0,11.0,0.1,2.3,111
2011-08-25 04:05:21,22.0,10.7,11.3,0.0,2.3,111
2011-08-25 04:10:21,22.0,11.1,10.8,0.0,2.3,112
2011-08-25 04:15:21,21.9,10.0,11.9,0.0,7.2,111
2011-08-25 04:20:21,21.6,11.2,10.4,0.0,13.2,111
2011-08-25 04:25:21,21.5,11.9,9.6,0.0,24.1,112
2011-08-25 04:30:21,21.2,13.7,7.5,0.0,28.0,111
2011-08-25 04:35:21,21.2,14.0,7.2,0.0,32.2,111
2011-08-25 04:40:21,21.2,14.8,6.4,0.0,29.7,112
2011-08-25 04:45:21,21.2,14.7,6.4,0.0,22.6,111
2011-08-25 04:50:21,20.5,15.4,5.1,0.0,11.8,111
2011-08-25 04:55:21,20.7,16.1,4.6,0.0,19.2,111
2011-08-25 05:00:21,20.6,13.3,7.3,0.0,3.7,112
2011-08-25 05:05:21,20.5,9.4,11.1,0.1,3.2,111
2011-08-25 05:10:21,20.3,9.2,11.1,0.2,3.2,112
2011-08-25 05:15:21,20.2,8.9,11.3,0.3,4.8,111
2011-08-25 05:20:21,20.2,9.1,11.1,0.6,7.8,112
2011-08-25 05:25:21,20.1,8.4,11.7,1.0,4.4,112
2011-08-25 05:30:21,20.0,9.0,11.1,2.1,4.2,111
2011-08-25 05:35:21,20.1,10.1,9.9,4.2,5.0,112
2011-08-25 05:40:21,20.1,10.9,9.1,7.8,15.9,111
2011-08-25 05:45:21,20.1,9.8,10.2,12.3,2.4,112
2011-08-25 05:50:21,20.0,7.4,12.7,17.4,6.9,111
2011-08-25 05:55:21,20.0,8.6,11.4,19.5,2.3,111
2011-08-25 06:00:21,20.0,8.5,11.6,25.2,2.3,112
2011-08-25 06:05:21,20.2,8.2,12.0,27.4,2.4,111
2011-08-25 06:10:21,20.3,10.4,9.9,28.0,2.5,112
2011-08-25 06:15:21,20.4,10.9,9.5,29.1,2.3,111
2011-08-25 06:20:21,20.5,8.6,11.8,30.7,2.3,111
2011-08-25 06:25:21,20.5,10.8,9.7,30.8,2.3,111
2011-08-25 06:30:21,20.5,7.5,13.1,31.5,2.3,112
2011-08-25 06:35:21,20.5,4.5,16.0,31.7,2.3,111
2011-08-25 06:40:21,20.4,5.7,14.7,31.7,2.3,112
2011-08-25 06:45:21,20.4,2.0,18.4,32.0,2.3,111
2011-08-25 06:50:21,20.4,3.1,17.2,32.0,2.4,111
2011-08-25 06:55:21,20.8,2.5,18.3,32.0,2.4,112
2011-08-25 07:00:21,23.1,2.7,20.4,32.2,2.3,111
2011-08-25 07:05:21,22.3,6.3,16.0,32.2,2.3,111
2011-08-25 07:10:21,21.1,7.5,13.6,32.2,2.3,112
2011-08-25 07:15:21,20.9,7.6,13.3,32.3,2.3,112
2011-08-25 07:20:21,20.8,8.0,12.8,32.3,2.3,111
2011-08-25 07:25:21,20.9,8.4,12.5,32.3,2.3,111
2011-08-25 07:30:21,20.9,8.8,12.1,32.3,2.3,112
2011-08-25 07:35:21,21.0,9.1,11.9,32.2,2.3,111
2011-08-25 07:40:21,20.9,9.2,11.7,32.0,2.3,111
2011-08-25 07:45:21,20.9,9.2,11.7,32.1,3.3,112
2011-08-25 07:50:21,20.4,9.6,10.8,32.1,3.8,111
2011-08-25 07:55:21,20.6,8.7,11.9,32.0,7.8,111
2011-08-25 08:00:21,20.5,8.7,11.8,31.8,10.7,112
2011-08-25 08:05:21,20.5,14.5,6.0,31.8,26.8,112
2011-08-25 08:10:21,20.6,16.2,4.4,31.9,32.6,111
2011-08-25 08:15:21,20.7,16.5,4.2,32.2,31.1,111
2011-08-25 08:20:21,20.8,16.7,4.1,32.1,28.2,112
2011-08-25 08:25:21,20.7,15.5,5.2,32.2,29.3,111
2011-08-25 08:30:21,20.6,14.3,6.2,32.2,28.6,111
2011-08-25 08:35:21,20.4,14.0,6.4,31.9,24.8,111
2011-08-25 08:40:21,20.2,13.3,6.8,31.9,31.8,112
2011-08-25 08:45:21,20.1,14.1,6.1,32.2,30.6,111
2011-08-25 08:50:21,20.0,14.2,5.8,32.2,26.2,112
2011-08-25 08:55:21,19.7,11.7,8.0,32.0,27.7,111
2011-08-25 09:00:21,19.4,11.8,7.7,31.8,27.4,111
2011-08-25 09:05:21,19.2,11.0,8.3,31.2,30.9,112
2011-08-25 09:10:21,19.4,15.1,4.3,31.5,32.8,112
2011-08-25 09:15:21,19.5,16.9,2.6,31.9,27.7,111
2011-08-25 09:20:21,19.5,17.2,2.3,32.0,25.4,112
2011-08-25 09:25:21,19.5,15.6,3.9,32.0,23.3,111
2011-08-25 09:30:21,19.2,14.3,4.9,32.0,21.9,111
2011-08-25 09:35:21,19.2,17.3,2.0,32.2,25.6,112
2011-08-25 09:40:21,19.4,16.6,2.7,32.3,28.8,112
2011-08-25 09:45:21,19.7,19.0,0.7,32.4,29.2,111
2011-08-25 09:50:21,19.9,16.5,3.4,32.5,18.6,111
2011-08-25 09:55:21,19.8,16.8,3.0,32.5,2.8,112
2011-08-25 10:00:21,19.8,11.6,8.2,32.5,2.3,111
2011-08-25 10:05:21,20.1,10.1,10.0,32.5,2.3,112
2011-08-25 10:10:21,20.4,9.5,10.9,32.3,6.9,111
2011-08-25 10:15:21,20.1,9.3,10.9,32.2,11.4,112
2011-08-25 10:20:21,19.9,15.5,4.4,32.4,20.4,111
2011-08-25 10:25:21,20.2,18.7,1.5,32.5,13.2,111
2011-08-25 10:30:21,20.4,17.9,2.4,32.5,2.9,112
2011-08-25 10:35:21,20.6,17.3,3.3,32.5,2.3,111
2011-08-25 10:40:21,20.6,17.0,3.7,32.5,2.6,112
2011-08-25 10:45:21,21.3,9.0,12.3,32.6,2.4,111
2011-08-25 10:50:21,22.2,6.1,16.0,32.5,2.3,112
2011-08-25 10:55:21,22.6,5.7,16.9,32.5,2.3,112
2011-08-25 11:00:21,22.7,5.7,17.0,32.5,2.3,112
2011-08-25 11:05:21,22.7,4.2,18.6,32.5,2.3,111
2011-08-25 11:10:21,23.0,5.3,17.7,32.6,2.3,112
2011-08-25 11:15:21,23.5,6.3,17.2,32.5,2.3,111
2011-08-25 11:20:21,25.5,2.0,23.5,32.6,2.3,112
2011-08-25 11:25:21,29.0,3.2,25.7,32.6,2.3,111
2011-08-25 11:30:21,29.3,8.3,21.1,32.5,2.3,111
2011-08-25 11:35:21,27.3,2.3,25.0,32.5,2.3,112
2011-08-25 11:40:21,28.5,-0.4,28.8,32.6,2.3,111
2011-08-25 11:45:21,29.6,1.2,28.4,32.6,2.3,112
2011-08-25 11:50:21,29.0,8.7,20.3,32.6,2.3,111
2011-08-25 11:55:21,29.9,6.8,23.1,32.6,2.3,112
2011-08-25 12:00:21,29.5,4.9,24.6,32.6,2.3,111
2011-08-25 12:05:21,28.2,11.2,17.0,32.6,2.3,111
2011-08-25 12:10:21,26.3,10.6,15.7,32.6,2.3,112
2011-08-25 12:15:21,26.8,11.8,15.0,32.6,2.3,111
2011-08-25 12:20:21,27.2,12.7,14.5,32.6,2.3,112
2011-08-25 12:25:21,27.1,9.5,17.6,32.6,2.3,111
2011-08-25 12:30:21,26.3,10.8,15.5,32.6,2.3,112
2011-08-25 12:35:21,26.6,8.4,18.3,32.6,2.3,111
2011-08-25 12:40:21,29.8,5.3,24.4,32.6,2.3,112
2011-08-25 12:45:21,31.9,6.4,25.5,32.6,2.3,111
2011-08-25 12:50:21,32.0,7.2,24.8,32.5,2.0,111
2011-08-25 12:55:21,31.1,4.4,26.7,32.6,2.3,112
2011-08-25 13:00:21,31.8,6.7,25.2,32.6,2.3,112
2011-08-25 13:05:21,32.7,5.0,27.7,32.6,1.4,111
2011-08-25 13:10:21,31.8,9.2,22.6,32.6,1.5,111
2011-08-25 13:15:21,31.8,6.0,25.8,32.6,1.4,112
2011-08-25 13:20:21,30.9,8.1,22.8,32.6,2.1,112
2011-08-25 13:25:21,30.8,6.6,24.3,32.6,2.4,111
2011-08-25 13:30:21,32.6,7.2,25.4,32.6,1.5,112
2011-08-25 13:35:21,32.1,4.5,27.6,32.6,1.5,112
2011-08-25 13:40:21,31.4,8.3,23.1,32.6,2.1,111
2011-08-25 13:45:21,30.8,6.6,24.2,32.6,2.2,112
2011-08-25 13:50:21,31.6,5.4,26.3,32.6,1.8,111
2011-08-25 13:55:21,32.3,6.9,25.3,32.6,1.7,111
2011-08-25 14:00:21,32.4,2.9,29.4,32.6,1.4,111
2011-08-25 14:05:21,32.1,-0.3,32.4,32.6,1.4,112
2011-08-25 14:10:21,32.0,-0.0,32.0,32.6,1.4,111
2011-08-25 14:15:21,32.5,1.1,31.4,32.6,1.6,111
2011-08-25 14:20:21,32.6,-0.5,33.2,32.6,1.5,112
2011-08-25 14:25:21,32.1,1.4,30.7,32.6,1.6,111
2011-08-25 14:30:21,32.1,4.1,28.0,32.6,1.6,111
2011-08-25 14:35:21,32.4,-0.0,32.4,32.6,1.6,112
2011-08-25 14:40:21,31.4,-1.1,32.5,32.6,1.8,111
2011-08-25 14:45:21,30.7,0.8,30.0,32.6,2.3,111
2011-08-25 14:50:21,31.3,2.4,28.9,32.6,2.3,111
2011-08-25 14:55:21,32.1,1.7,30.4,32.6,1.7,111
2011-08-25 15:00:21,32.0,0.6,31.4,32.6,1.6,112
2011-08-25 15:05:21,31.4,1.0,30.4,32.6,2.0,111
2011-08-25 15:10:21,31.8,3.5,28.3,32.6,2.2,112
2011-08-25 15:15:21,32.4,2.0,30.5,32.6,1.4,111
2011-08-25 15:20:21,32.8,1.3,31.5,32.6,1.2,111
2011-08-25 15:25:21,32.2,2.9,29.3,32.6,1.5,112
2011-08-25 15:30:22,31.7,2.7,29.0,32.6,1.6,111
2011-08-25 15:35:22,31.3,3.9,27.5,32.6,1.8,112
2011-08-25 15:40:22,31.5,3.1,28.4,32.6,1.8,111
2011-08-25 15:45:22,32.2,3.9,28.3,32.6,1.5,112
2011-08-25 15:50:22,33.0,2.4,30.7,32.6,1.2,111
2011-08-25 15:55:22,33.1,2.4,30.6,32.6,1.2,111
2011-08-25 16:00:22,32.9,2.6,30.3,32.6,1.2,112
2011-08-25 16:05:22,32.7,5.3,27.4,32.6,1.2,111
2011-08-25 16:10:22,31.9,5.2,26.8,32.6,1.4,112
2011-08-25 16:15:22,31.4,2.1,29.3,32.6,1.8,111
2011-08-25 16:20:22,31.6,1.5,30.1,32.6,1.8,112
2011-08-25 16:25:22,31.9,3.2,28.7,32.6,1.4,111
2011-08-25 16:30:22,32.7,1.8,30.9,32.6,1.3,111
2011-08-25 16:35:22,33.1,2.3,30.8,32.6,1.2,112
2011-08-25 16:40:22,33.4,3.6,29.8,32.6,1.4,111
2011-08-25 16:45:22,32.9,3.0,29.9,32.6,1.3,111
2011-08-25 16:50:22,32.0,4.2,27.8,32.6,1.3,111
2011-08-25 16:55:22,32.3,4.9,27.4,32.6,1.4,111
2011-08-25 17:00:22,33.0,1.5,31.6,32.6,1.2,112
2011-08-25 17:05:22,32.9,-0.7,33.5,32.6,1.3,111
2011-08-25 17:10:22,31.7,-0.2,31.9,32.5,1.4,112
2011-08-25 17:15:22,30.7,2.3,28.4,32.6,2.0,111
2011-08-25 17:20:22,30.4,3.7,26.7,32.6,2.3,111
2011-08-25 17:25:22,30.5,4.1,26.5,32.6,2.3,112
2011-08-25 17:30:22,30.7,3.7,27.1,32.5,2.3,111
2011-08-25 17:35:22,30.3,5.6,24.7,32.5,2.3,112
2011-08-25 17:40:22,29.9,7.4,22.5,32.5,2.3,111
2011-08-25 17:45:22,29.7,6.7,22.9,32.4,2.3,111
2011-08-25 17:50:22,29.1,5.5,23.6,32.5,2.3,112
2011-08-25 17:55:22,28.8,6.7,22.1,32.5,2.3,111
2011-08-25 18:00:22,28.5,6.0,22.6,32.5,2.3,112
2011-08-25 18:05:22,28.4,5.4,22.9,32.4,2.3,111
2011-08-25 18:10:22,28.3,5.4,22.8,32.4,2.3,112
2011-08-25 18:15:22,28.2,5.4,22.9,32.4,2.3,112
2011-08-25 18:20:22,28.1,5.4,22.7,32.4,2.3,112
2011-08-25 18:25:22,28.0,5.4,22.7,32.3,2.3,112
2011-08-25 18:30:22,27.9,5.5,22.4,32.2,2.3,111
2011-08-25 18:35:22,27.7,5.6,22.1,32.2,2.3,112
2011-08-25 18:40:22,27.5,6.1,21.4,32.2,2.3,112
2011-08-25 18:45:22,27.5,6.4,21.1,32.2,2.3,111
2011-08-25 18:50:22,27.5,6.2,21.3,32.1,2.3,111
2011-08-25 18:55:22,27.5,6.4,21.1,32.2,2.3,111
2011-08-25 19:00:22,27.6,6.2,21.4,32.1,2.3,112
2011-08-25 19:05:22,27.6,5.9,21.7,32.0,2.3,112
2011-08-25 19:10:22,27.5,6.0,21.5,31.9,2.3,111
2011-08-25 19:15:22,26.9,6.1,20.8,31.8,2.3,112
2011-08-25 19:20:22,27.2,5.5,21.8,31.6,2.3,112
2011-08-25 19:25:22,27.1,6.0,21.1,31.5,2.3,111
2011-08-25 19:30:22,26.7,6.4,20.3,31.6,2.3,111
2011-08-25 19:35:22,24.2,6.7,17.5,31.5,2.3,111
2011-08-25 19:40:22,22.6,6.8,15.8,31.3,2.2,111
2011-08-25 19:45:22,22.1,6.8,15.3,31.2,2.3,111
2011-08-25 19:50:22,21.9,6.8,15.1,31.1,2.3,112
2011-08-25 19:55:22,21.7,6.8,14.9,30.8,2.3,111
2011-08-25 20:00:22,21.6,6.8,14.7,29.9,2.3,111
2011-08-25 20:05:22,21.5,7.3,14.2,28.9,2.3,111
2011-08-25 20:10:22,21.5,7.4,14.1,27.1,2.3,112
2011-08-25 20:15:22,21.5,7.5,14.0,24.6,2.3,111
2011-08-25 20:20:22,21.4,7.3,14.1,22.3,2.3,112
2011-08-25 20:25:22,21.3,7.3,14.0,18.8,2.3,112
2011-08-25 20:30:22,21.3,6.9,14.4,15.3,2.3,111
2011-08-25 20:35:22,21.2,5.0,16.2,11.6,2.3,112
2011-08-25 20:40:22,21.1,4.5,16.6,7.6,2.2,112
2011-08-25 20:45:22,21.0,4.4,16.6,4.2,2.2,112
2011-08-25 20:50:22,20.9,3.5,17.5,2.1,2.3,111
2011-08-25 20:55:22,20.9,4.4,16.5,1.1,2.3,111
2011-08-25 21:00:22,20.8,5.1,15.7,0.6,2.3,112
2011-08-25 21:05:22,20.8,7.4,13.4,0.3,2.3,111
2011-08-25 21:10:22,20.8,9.0,11.8,0.2,2.3,112
2011-08-25 21:15:22,21.0,9.2,11.7,0.1,2.6,111
2011-08-25 21:20:22,21.0,7.0,14.0,0.1,2.4,111
2011-08-25 21:25:22,21.0,7.6,13.4,0.1,2.6,112
2011-08-25 21:30:22,21.0,8.5,12.5,0.1,3.1,111
2011-08-25 21:35:22,20.9,9.0,11.9,0.1,4.9,112
2011-08-25 21:40:22,20.8,9.1,11.6,0.1,5.6,111
2011-08-25 21:45:22,20.7,10.5,10.2,0.1,7.7,112
2011-08-25 21:50:22,20.5,10.8,9.7,0.1,11.3,111
2011-08-25 21:55:22,20.4,8.9,11.5,0.1,9.8,111
2011-08-25 22:00:22,20.3,12.1,8.1,0.1,9.2,112
2011-08-25 22:05:22,20.2,12.5,7.7,0.1,7.7,111
2011-08-25 22:10:22,20.1,11.0,9.1,0.1,5.4,111
2011-08-25 22:15:22,20.0,8.4,11.6,0.1,6.6,112
2011-08-25 22:20:22,20.0,7.7,12.3,0.0,10.9,112
2011-08-25 22:25:22,20.0,8.4,11.6,0.0,13.0,111
2011-08-25 22:30:22,20.1,9.5,10.6,0.0,18.2,111
2011-08-25 22:35:22,20.3,13.6,6.7,0.0,28.3,111
2011-08-25 22:40:22,20.4,13.7,6.7,0.0,26.5,111
2011-08-25 22:45:22,20.4,13.4,7.0,0.0,28.2,112
2011-08-25 22:50:22,20.4,14.4,6.0,0.0,27.3,111
2011-08-25 22:55:22,20.3,15.2,5.1,0.0,20.9,112
2011-08-25 23:00:22,20.1,14.4,5.7,0.0,15.4,111
2011-08-25 23:05:22,20.0,14.2,5.8,0.0,15.5,111
2011-08-25 23:10:22,20.1,15.0,5.1,0.0,17.6,112
2011-08-25 23:15:22,20.1,15.0,5.0,0.0,12.7,111
2011-08-25 23:20:22,20.1,14.8,5.3,0.0,5.8,112
2011-08-25 23:25:22,20.0,12.2,7.8,0.0,5.4,111
2011-08-25 23:30:22,20.0,10.1,9.9,0.0,5.0,112
2011-08-25 23:35:22,20.0,10.9,9.1,0.0,11.1,111
2011-08-25 23:40:22,20.1,10.7,9.4,0.0,11.4,112
2011-08-25 23:45:22,20.1,11.5,8.6,0.0,15.2,111
2011-08-25 23:50:22,20.1,13.1,7.0,0.0,14.8,111
2011-08-25 23:55:22,20.1,12.4,7.7,0.0,15.2,111
